| time (UTC) | temp F | wind direction | speed MPH | gust MPH | rain 1hr in | rain 24hr in | rain mn in | humidity % | barometer mb |
| 20260504012229 | 42 | 279 | 1.0 | 1.0 | 0.00 | 0.00 | 0.00 | 56 | 1018.0 |
| 20260504011726 | 42 | 279 | 0.0 | 0.0 | 0.00 | 0.00 | 0.00 | 56 | 1018.0 |
| 20260504011223 | 42 | 279 | 0.0 | 0.0 | 0.00 | 0.00 | 0.00 | 56 | 1018.0 |
| 20260504010719 | 42 | 279 | 0.0 | 0.0 | 0.00 | 0.00 | 0.00 | 56 | 1017.9 |
| 20260504010214 | 43 | 279 | 0.0 | 0.0 | 0.00 | 0.00 | 0.00 | 54 | 1017.9 |
| 20260504005711 | 44 | 279 | 0.0 | 0.0 | 0.00 | 0.00 | 0.00 | 52 | 1017.7 |
| 20260504005208 | 44 | 279 | 1.0 | 1.0 | 0.00 | 0.00 | 0.00 | 51 | 1018.0 |
| 20260504004706 | 44 | 279 | 1.0 | 1.0 | 0.00 | 0.00 | 0.00 | 51 | 1018.0 |
| 20260504004203 | 44 | 279 | 0.0 | 0.0 | 0.00 | 0.00 | 0.00 | 51 | 1017.9 |
| 20260504003659 | 44 | 279 | 0.0 | 0.0 | 0.00 | 0.00 | 0.00 | 51 | 1017.8 |
| 20260504003156 | 44 | 279 | 0.0 | 0.0 | 0.00 | 0.00 | 0.00 | 50 | 1017.9 |
| 20260504002653 | 44 | 279 | 0.0 | 1.0 | 0.00 | 0.00 | 0.00 | 51 | 1017.9 |
| 20260504002150 | 45 | 279 | 0.0 | 2.0 | 0.00 | 0.00 | 0.00 | 50 | 1017.9 |
| 20260504001648 | 45 | 279 | 1.0 | 2.0 | 0.00 | 0.00 | 0.00 | 48 | 1017.9 |
| 20260504001144 | 46 | 285 | 1.0 | 2.0 | 0.00 | 0.00 | 0.00 | 48 | 1018.0 |
| 20260504000641 | 46 | 265 | 1.0 | 4.0 | 0.00 | 0.00 | 0.00 | 47 | 1017.9 |
| 20260504000139 | 46 | 264 | 2.0 | 3.0 | 0.00 | 0.00 | 0.00 | 46 | 1017.9 |
| 20260503235637 | 47 | 257 | 3.0 | 4.0 | 0.00 | 0.00 | 0.00 | 45 | 1018.0 |
| 20260503235133 | 47 | 271 | 2.0 | 3.0 | 0.00 | 0.00 | 0.00 | 47 | 1018.0 |
| 20260503234631 | 46 | 277 | 3.0 | 4.0 | 0.00 | 0.00 | 0.00 | 45 | 1018.1 |
| 20260503234129 | 47 | 264 | 2.0 | 2.0 | 0.00 | 0.00 | 0.00 | 46 | 1018.1 |
| 20260503233626 | 48 | 309 | 1.0 | 4.0 | 0.00 | 0.00 | 0.00 | 44 | 1018.0 |
| 20260503233121 | 48 | 295 | 3.0 | 4.0 | 0.00 | 0.00 | 0.00 | 44 | 1018.1 |
| 20260503232619 | 48 | 312 | 1.0 | 3.0 | 0.00 | 0.00 | 0.00 | 43 | 1017.9 |
| 20260503232116 | 49 | 277 | 3.0 | 4.0 | 0.00 | 0.00 | 0.00 | 42 | 1018.1 |
| 20260503231614 | 49 | 244 | 4.0 | 7.0 | 0.00 | 0.00 | 0.00 | 42 | 1018.1 |
| 20260503231110 | 49 | 278 | 2.0 | 4.0 | 0.00 | 0.00 | 0.00 | 42 | 1018.1 |
| 20260503230607 | 49 | 269 | 3.0 | 8.0 | 0.00 | 0.00 | 0.00 | 41 | 1018.1 |
| 20260503230104 | 50 | 291 | 5.0 | 6.0 | 0.00 | 0.00 | 0.00 | 41 | 1018.1 |
| 20260503225602 | 50 | 310 | 3.0 | 4.0 | 0.00 | 0.00 | 0.00 | 43 | 1017.8 |
| 20260503225057 | 50 | 261 | 1.0 | 4.0 | 0.00 | 0.00 | 0.00 | 42 | 1017.9 |
| 20260503224555 | 50 | 254 | 1.0 | 3.0 | 0.00 | 0.00 | 0.00 | 42 | 1018.2 |
| 20260503224053 | 50 | 280 | 1.0 | 4.0 | 0.00 | 0.00 | 0.00 | 40 | 1018.0 |
| 20260503223550 | 51 | 265 | 4.0 | 7.0 | 0.00 | 0.00 | 0.00 | 39 | 1018.2 |
| 20260503223045 | 51 | 309 | 1.0 | 4.0 | 0.00 | 0.00 | 0.00 | 40 | 1018.2 |
| 20260503222544 | 51 | 294 | 2.0 | 3.0 | 0.00 | 0.00 | 0.00 | 41 | 1018.2 |
| 20260503222041 | 51 | 299 | 0.0 | 3.0 | 0.00 | 0.00 | 0.00 | 41 | 1018.0 |
| 20260503221539 | 51 | 303 | 2.0 | 4.0 | 0.00 | 0.00 | 0.00 | 40 | 1018.0 |
| 20260503221037 | 51 | 52 | 1.0 | 6.0 | 0.00 | 0.00 | 0.00 | 39 | 1018.1 |
| 20260503220532 | 51 | 302 | 1.0 | 8.0 | 0.00 | 0.00 | 0.00 | 39 | 1018.2 |
| 20260503220030 | 51 | 260 | 4.0 | 8.0 | 0.00 | 0.00 | 0.00 | 38 | 1018.1 |
| 20260503215527 | 51 | 274 | 4.0 | 7.0 | 0.00 | 0.00 | 0.00 | 38 | 1018.3 |
| 20260503215024 | 51 | 290 | 2.0 | 8.0 | 0.00 | 0.00 | 0.00 | 39 | 1018.2 |
| 20260503214522 | 51 | 288 | 0.0 | 6.0 | 0.00 | 0.00 | 0.00 | 40 | 1018.3 |
| 20260503214018 | 51 | 240 | 7.0 | 10.0 | 0.00 | 0.00 | 0.00 | 37 | 1018.2 |
| 20260503213517 | 51 | 258 | 5.0 | 7.0 | 0.00 | 0.00 | 0.00 | 37 | 1018.2 |
| 20260503213013 | 51 | 242 | 6.0 | 11.0 | 0.00 | 0.00 | 0.00 | 39 | 1018.4 |
| 20260503212510 | 51 | 307 | 4.0 | 8.0 | 0.00 | 0.00 | 0.00 | 40 | 1018.3 |
| 20260503212008 | 52 | 273 | 7.0 | 9.0 | 0.00 | 0.00 | 0.00 | 38 | 1018.2 |
| 20260503211505 | 51 | 279 | 0.0 | 7.0 | 0.00 | 0.00 | 0.00 | 37 | 1018.3 |
| 20260503211000 | 52 | 245 | 3.0 | 4.0 | 0.00 | 0.00 | 0.00 | 39 | 1018.4 |
| 20260503210457 | 52 | 270 | 5.0 | 6.0 | 0.00 | 0.00 | 0.00 | 38 | 1018.3 |
| 20260503205952 | 52 | 311 | 1.0 | 2.0 | 0.00 | 0.00 | 0.00 | 39 | 1018.2 |
| 20260503205449 | 53 | 68 | 1.0 | 8.0 | 0.00 | 0.00 | 0.00 | 41 | 1018.3 |
| 20260503204945 | 51 | 256 | 4.0 | 7.0 | 0.00 | 0.00 | 0.00 | 40 | 1018.4 |
| 20260503204442 | 52 | 306 | 4.0 | 6.0 | 0.00 | 0.00 | 0.00 | 39 | 1018.5 |
| 20260503203938 | 52 | 288 | 4.0 | 7.0 | 0.00 | 0.00 | 0.00 | 37 | 1018.2 |
| 20260503203436 | 52 | 290 | 4.0 | 6.0 | 0.00 | 0.00 | 0.00 | 38 | 1018.4 |
| 20260503202933 | 52 | 279 | 2.0 | 6.0 | 0.00 | 0.00 | 0.00 | 42 | 1018.5 |
| 20260503202431 | 53 | 276 | 7.0 | 9.0 | 0.00 | 0.00 | 0.00 | 38 | 1018.6 |
| 20260503201930 | 52 | 42 | 1.0 | 8.0 | 0.00 | 0.00 | 0.00 | 43 | 1018.7 |
| 20260503201427 | 52 | 265 | 3.0 | 8.0 | 0.00 | 0.00 | 0.00 | 37 | 1018.7 |
| 20260503200924 | 50 | 284 | 2.0 | 4.0 | 0.00 | 0.00 | 0.00 | 42 | 1018.6 |
| 20260503200420 | 52 | 296 | 2.0 | 4.0 | 0.00 | 0.00 | 0.00 | 40 | 1018.7 |
| 20260503195917 | 54 | 239 | 2.0 | 6.0 | 0.00 | 0.00 | 0.00 | 40 | 1018.7 |
| 20260503195415 | 51 | 287 | 2.0 | 4.0 | 0.00 | 0.00 | 0.00 | 41 | 1018.6 |
| 20260503194911 | 52 | 271 | 3.0 | 6.0 | 0.00 | 0.00 | 0.00 | 40 | 1019.0 |
| 20260503194408 | 53 | 298 | 6.0 | 8.0 | 0.00 | 0.00 | 0.00 | 39 | 1019.0 |
| 20260503193903 | 53 | 300 | 6.0 | 7.0 | 0.00 | 0.00 | 0.00 | 41 | 1018.9 |
| 20260503193359 | 52 | 236 | 4.0 | 7.0 | 0.00 | 0.00 | 0.00 | 40 | 1018.7 |
| 20260503192855 | 53 | 242 | 1.0 | 3.0 | 0.00 | 0.00 | 0.00 | 42 | 1019.1 |
| 20260503192351 | 52 | 282 | 6.0 | 8.0 | 0.00 | 0.00 | 0.00 | 41 | 1019.0 |
| 20260503191847 | 51 | 79 | 2.0 | 6.0 | 0.00 | 0.00 | 0.00 | 47 | 1019.0 |
| 20260503191345 | 51 | 272 | 2.0 | 8.0 | 0.00 | 0.00 | 0.00 | 40 | 1019.0 |
| 20260503190841 | 51 | 268 | 2.0 | 3.0 | 0.00 | 0.00 | 0.00 | 41 | 1019.3 |
| 20260503190338 | 52 | 286 | 7.0 | 9.0 | 0.00 | 0.00 | 0.00 | 40 | 1019.3 |
| 20260503185835 | 51 | 264 | 7.0 | 9.0 | 0.00 | 0.00 | 0.00 | 40 | 1019.3 |
| 20260503185331 | 50 | 314 | 0.0 | 3.0 | 0.00 | 0.00 | 0.00 | 42 | 1019.3 |
| 20260503184831 | 52 | 292 | 7.0 | 10.0 | 0.00 | 0.00 | 0.00 | 42 | 1019.4 |
| 20260503184327 | 53 | 20 | 4.0 | 9.0 | 0.00 | 0.00 | 0.00 | 45 | 1019.6 |
| 20260503183823 | 53 | 290 | 4.0 | 8.0 | 0.00 | 0.00 | 0.00 | 41 | 1019.5 |
| 20260503183321 | 53 | 307 | 1.0 | 8.0 | 0.00 | 0.00 | 0.00 | 46 | 1019.4 |
| 20260503182818 | 51 | 269 | 4.0 | 6.0 | 0.00 | 0.00 | 0.00 | 42 | 1019.6 |
| 20260503182317 | 53 | 261 | 1.0 | 6.0 | 0.00 | 0.00 | 0.00 | 44 | 1019.6 |
| 20260503181814 | 50 | 272 | 6.0 | 7.0 | 0.00 | 0.00 | 0.00 | 44 | 1019.4 |
| 20260503181311 | 51 | 253 | 8.0 | 10.0 | 0.00 | 0.00 | 0.00 | 43 | 1019.6 |
| 20260503180807 | 51 | 261 | 1.0 | 4.0 | 0.00 | 0.00 | 0.00 | 47 | 1019.6 |
| 20260503180306 | 51 | 246 | 2.0 | 9.0 | 0.00 | 0.00 | 0.00 | 44 | 1019.7 |
| 20260503175801 | 52 | 250 | 4.0 | 4.0 | 0.00 | 0.00 | 0.00 | 42 | 1019.7 |
| 20260503175300 | 51 | 91 | 2.0 | 6.0 | 0.00 | 0.00 | 0.00 | 41 | 1019.7 |
| 20260503174755 | 53 | 308 | 2.0 | 3.0 | 0.00 | 0.00 | 0.00 | 47 | 1019.6 |
| 20260503174253 | 49 | 321 | 5.0 | 9.0 | 0.00 | 0.00 | 0.00 | 45 | 1019.5 |
| 20260503173748 | 49 | 295 | 4.0 | 4.0 | 0.00 | 0.00 | 0.00 | 43 | 1019.6 |
| 20260503173244 | 49 | 303 | 8.0 | 10.0 | 0.00 | 0.00 | 0.00 | 46 | 1019.7 |
| 20260503172741 | 51 | 298 | 2.0 | 6.0 | 0.00 | 0.00 | 0.00 | 43 | 1019.8 |
| 20260503172238 | 50 | 295 | 4.0 | 7.0 | 0.00 | 0.00 | 0.00 | 44 | 1019.9 |
| 20260503171735 | 49 | 238 | 4.0 | 7.0 | 0.00 | 0.00 | 0.00 | 45 | 1019.8 |
| 20260503171232 | 50 | 267 | 5.0 | 6.0 | 0.00 | 0.00 | 0.00 | 44 | 1020.0 |
| 20260503170729 | 47 | 274 | 1.0 | 6.0 | 0.00 | 0.00 | 0.00 | 50 | 1020.0 |
| 20260503170226 | 48 | 268 | 6.0 | 11.0 | 0.00 | 0.00 | 0.00 | 45 | 1019.9 |
| 20260503160147 | 46 | 257 | 11.0 | 16.0 | 0.00 | 0.00 | 0.00 | 48 | 1020.2 |
| 20260503150618 | 47 | 299 | 3.0 | 8.0 | 0.00 | 0.00 | 0.00 | 51 | 1020.5 |
| 20260503150114 | 45 | 28 | 2.0 | 7.0 | 0.00 | 0.00 | 0.00 | 51 | 1020.4 |
| 20260503131008 | 36 | 293 | 3.0 | 7.0 | 0.00 | 0.00 | 0.00 | 76 | 1020.0 |
| 20260503130505 | 35 | 294 | 2.0 | 7.0 | 0.00 | 0.00 | 0.00 | 77 | 1019.9 |
| 20260503110355 | 30 | 296 | 3.0 | 4.0 | 0.00 | 0.00 | 0.00 | 89 | 1018.5 |
| 20260503090246 | 30 | 292 | 1.0 | 1.0 | 0.00 | 0.00 | 0.00 | 87 | 1017.9 |
| 20260503081214 | 31 | 294 | 1.0 | 2.0 | 0.00 | 0.00 | 0.00 | 87 | 1017.5 |
| 20260503080715 | 31 | 287 | 0.0 | 1.0 | 0.00 | 0.00 | 0.00 | 86 | 1017.5 |
| 20260503080212 | 31 | 295 | 0.0 | 1.0 | 0.00 | 0.00 | 0.00 | 86 | 1017.2 |
| 20260503072648 | 32 | 285 | 1.0 | 3.0 | 0.00 | 0.00 | 0.00 | 87 | 1017.1 |
| 20260503072145 | 32 | 313 | 1.0 | 2.0 | 0.00 | 0.00 | 0.00 | 87 | 1017.1 |
| 20260503071642 | 32 | 296 | 1.0 | 1.0 | 0.00 | 0.00 | 0.00 | 87 | 1017.1 |
| 20260503071139 | 32 | 297 | 0.0 | 1.0 | 0.00 | 0.00 | 0.00 | 87 | 1016.9 |
| 20260503070636 | 32 | 306 | 0.0 | 0.0 | 0.00 | 0.00 | 0.00 | 87 | 1016.9 |
| 20260503070134 | 32 | 306 | 0.0 | 0.0 | 0.00 | 0.00 | 0.00 | 87 | 1017.0 |
| 20260503060104 | 32 | 294 | 0.0 | 1.0 | 0.00 | 0.00 | 0.00 | 86 | 1017.0 |
| 20260503055055 | 32 | 295 | 1.0 | 2.0 | 0.00 | 0.00 | 0.00 | 86 | 1017.0 |
| 20260503054550 | 32 | 297 | 1.0 | 3.0 | 0.00 | 0.00 | 0.00 | 86 | 1017.0 |
| 20260503054048 | 32 | 286 | 0.0 | 0.0 | 0.00 | 0.00 | 0.00 | 86 | 1017.1 |
| 20260503053546 | 32 | 285 | 0.0 | 1.0 | 0.00 | 0.00 | 0.00 | 86 | 1017.0 |
| 20260503053044 | 32 | 285 | 1.0 | 1.0 | 0.00 | 0.00 | 0.00 | 86 | 1016.9 |
| 20260503052540 | 32 | 285 | 2.0 | 3.0 | 0.00 | 0.00 | 0.00 | 86 | 1017.1 |
| 20260503052036 | 32 | 277 | 0.0 | 1.0 | 0.00 | 0.00 | 0.00 | 86 | 1017.2 |
| 20260503051532 | 32 | 277 | 0.0 | 1.0 | 0.00 | 0.00 | 0.00 | 86 | 1017.0 |
| 20260503051030 | 32 | 277 | 1.0 | 1.0 | 0.00 | 0.00 | 0.00 | 86 | 1017.3 |
| 20260503050525 | 32 | 277 | 1.0 | 1.0 | 0.00 | 0.00 | 0.00 | 87 | 1017.2 |
| 20260503050023 | 31 | 276 | 1.0 | 1.0 | 0.00 | 0.00 | 0.00 | 87 | 1017.3 |
| 20260503045520 | 31 | 276 | 0.0 | 1.0 | 0.00 | 0.00 | 0.00 | 86 | 1017.2 |
| 20260503045018 | 31 | 276 | 1.0 | 1.0 | 0.00 | 0.00 | 0.00 | 86 | 1017.2 |
| 20260503044514 | 31 | 275 | 0.0 | 0.0 | 0.00 | 0.00 | 0.00 | 86 | 1017.3 |
| 20260503044012 | 32 | 276 | 0.0 | 2.0 | 0.00 | 0.00 | 0.00 | 86 | 1017.5 |
| 20260503043508 | 32 | 271 | 0.0 | 1.0 | 0.00 | 0.00 | 0.00 | 85 | 1017.4 |
| 20260503043004 | 32 | 271 | 0.0 | 1.0 | 0.00 | 0.00 | 0.00 | 84 | 1017.3 |
| 20260503042501 | 32 | 258 | 0.0 | 0.0 | 0.00 | 0.00 | 0.00 | 84 | 1017.4 |
| 20260503041957 | 33 | 257 | 0.0 | 0.0 | 0.00 | 0.00 | 0.00 | 82 | 1017.4 |
| 20260503041454 | 33 | 257 | 0.0 | 0.0 | 0.00 | 0.00 | 0.00 | 81 | 1017.4 |
| 20260503040952 | 33 | 257 | 0.0 | 1.0 | 0.00 | 0.00 | 0.00 | 81 | 1017.3 |
| 20260503040449 | 33 | 257 | 0.0 | 0.0 | 0.00 | 0.00 | 0.00 | 79 | 1017.3 |
| 20260503035946 | 33 | 258 | 1.0 | 2.0 | 0.00 | 0.00 | 0.00 | 79 | 1017.5 |
| 20260503035443 | 33 | 287 | 1.0 | 4.0 | 0.00 | 0.00 | 0.00 | 79 | 1017.4 |
| 20260503034941 | 33 | 279 | 0.0 | 1.0 | 0.00 | 0.00 | 0.00 | 80 | 1017.3 |
| 20260503034433 | 34 | 293 | 0.0 | 2.0 | 0.00 | 0.00 | 0.00 | 80 | 1017.4 |
| 20260503033929 | 34 | 3 | 0.0 | 0.0 | 0.00 | 0.00 | 0.00 | 82 | 1017.4 |
| 20260503033427 | 34 | 333 | 1.0 | 1.0 | 0.00 | 0.00 | 0.00 | 84 | 1017.7 |
| 20260503032925 | 34 | 282 | 0.0 | 0.0 | 0.00 | 0.00 | 0.00 | 85 | 1017.5 |
| 20260503032424 | 34 | 282 | 0.0 | 1.0 | 0.00 | 0.00 | 0.00 | 85 | 1017.5 |
| 20260503031921 | 33 | 282 | 0.0 | 0.0 | 0.00 | 0.00 | 0.00 | 86 | 1017.5 |
| 20260503031418 | 33 | 282 | 0.0 | 0.0 | 0.00 | 0.00 | 0.00 | 86 | 1017.7 |
| 20260503030915 | 33 | 282 | 0.0 | 0.0 | 0.00 | 0.00 | 0.00 | 85 | 1017.8 |
| 20260503030411 | 33 | 282 | 1.0 | 1.0 | 0.00 | 0.00 | 0.00 | 85 | 1017.5 |
| 20260503025908 | 34 | 282 | 0.0 | 2.0 | 0.00 | 0.00 | 0.00 | 84 | 1017.7 |
| 20260503025405 | 34 | 279 | 0.0 | 0.0 | 0.00 | 0.00 | 0.00 | 84 | 1017.7 |
| 20260503024902 | 34 | 280 | 1.0 | 2.0 | 0.00 | 0.00 | 0.00 | 84 | 1017.5 |
| 20260503024359 | 34 | 279 | 0.0 | 0.0 | 0.00 | 0.00 | 0.00 | 84 | 1017.8 |
| 20260503023855 | 34 | 280 | 0.0 | 0.0 | 0.00 | 0.00 | 0.00 | 84 | 1017.9 |
| 20260503023352 | 34 | 279 | 0.0 | 0.0 | 0.00 | 0.00 | 0.00 | 83 | 1017.7 |
| 20260503022849 | 34 | 279 | 0.0 | 0.0 | 0.00 | 0.00 | 0.00 | 82 | 1017.7 |
| 20260503022344 | 35 | 280 | 0.0 | 2.0 | 0.00 | 0.00 | 0.00 | 82 | 1017.9 |
| 20260503021840 | 35 | 279 | 0.0 | 0.0 | 0.00 | 0.00 | 0.00 | 82 | 1017.9 |
| 20260503021337 | 35 | 279 | 0.0 | 0.0 | 0.00 | 0.00 | 0.00 | 81 | 1017.7 |
| 20260503020834 | 35 | 278 | 0.0 | 0.0 | 0.00 | 0.00 | 0.00 | 81 | 1017.7 |
| 20260503020332 | 35 | 278 | 0.0 | 2.0 | 0.00 | 0.00 | 0.00 | 80 | 1017.7 |
| 20260503015828 | 35 | 279 | 0.0 | 1.0 | 0.00 | 0.00 | 0.00 | 82 | 1017.8 |
| 20260503015325 | 35 | 277 | 0.0 | 0.0 | 0.00 | 0.00 | 0.00 | 82 | 1017.8 |
| 20260503014820 | 35 | 276 | 0.0 | 2.0 | 0.00 | 0.00 | 0.00 | 82 | 1017.5 |
| 20260503014319 | 36 | 275 | 0.0 | 1.0 | 0.00 | 0.00 | 0.00 | 82 | 1017.5 |
| 20260503013816 | 36 | 127 | 0.0 | 1.0 | 0.00 | 0.00 | 0.00 | 82 | 1017.7 |
| 20260503013313 | 36 | 336 | 0.0 | 0.0 | 0.00 | 0.00 | 0.00 | 82 | 1017.5 |
| 20260503012810 | 36 | 337 | 0.0 | 0.0 | 0.00 | 0.00 | 0.00 | 81 | 1017.5 |